[Date Prev][Date Next][Thread Prev][Thread Next] - [Date Index][Thread Index][Author Index]

2 Line ISS Keps 3-30



ISS
1 25544U 98067A   02089.19374256  .00041239  00000-0  52116-3 0  2446
2 25544  51.6363  89.8659 0003497 339.4116 120.0573 15.59111880191717


----
Via the sarex mailing list at AMSAT.ORG courtesy of AMSAT-NA.
To unsubscribe, send "unsubscribe sarex" to Majordomo@amsat.org



AMSAT Top AMSAT Home